This is the latest recevied weather packets stored in our database for station/object KA3RQR. If no packets are shown the sender has not sent any weather packets the latest 10 day(s).
| Time | Temp. | Humidity | Pressure | Rain* | Wind** | Luminosity | Snow |
|---|---|---|---|---|---|---|---|
| 1777501105 | 14.44° C | 99% | 1008.2 hPa | 3.05 mm | - | 37 W/m² | - |
| 1777500803 | 14.44° C | 99% | 1008.2 hPa | 6.1 mm | - | 12 W/m² | - |
| 1777500500 | 14.44° C | 99% | 1008.2 hPa | 3.05 mm | - | 4 W/m² | - |
| 1777500196 | 14.44° C | 99% | 1008.4 hPa | 1.78 mm | - | 6 W/m² | - |
| 1777499893 | 14.44° C | 99% | 1008 hPa | 4.32 mm | - | 23 W/m² | - |
| 1777499589 | 14.44° C | 99% | 1008.1 hPa | 7.11 mm | - | 16 W/m² | - |
| 1777499287 | 14.44° C | 99% | 1008.4 hPa | 6.1 mm | - | 6 W/m² | - |
| 1777498984 | 14.44° C | 99% | 1008.5 hPa | 6.1 mm | - | 4 W/m² | - |
| 1777498680 | 14.44° C | 99% | 1008.7 hPa | 9.65 mm | - | 3 W/m² | - |
| 1777498376 | 14.44° C | 98% | 1008.8 hPa | 7.87 mm | - | 2 W/m² | - |
| 1777498074 | 14.44° C | 98% | 1008.7 hPa | 3.05 mm | - | 3 W/m² | - |
| 1777497770 | 14.44° C | 98% | 1008.7 hPa | 3.05 mm | - | 11 W/m² | - |
| 1777497467 | 14.44° C | 97% | 1008.6 hPa | 1.27 mm | - | 6 W/m² | - |
| 1777497163 | 14.44° C | 97% | 1008.6 hPa | 0 mm | - | 11 W/m² | - |
| 1777496860 | 14.44° C | 96% | 1008.5 hPa | 1.78 mm | - | 12 W/m² | - |
| 1777496557 | 14.44° C | 96% | 1008.5 hPa | 1.78 mm | - | 18 W/m² | - |
| 1777496253 | 15° C | 95% | 1008.5 hPa | 1.27 mm | - | 13 W/m² | - |
| 1777495950 | 15° C | 94% | 1008.6 hPa | 1.27 mm | - | 28 W/m² | - |
| 1777495645 | 15° C | 94% | 1008.6 hPa | 0 mm | - | 23 W/m² | - |
| 1777495342 | 15° C | 94% | 1008.5 hPa | 0 mm | - | 23 W/m² | - |
| 1777495039 | 15° C | 94% | 1008.7 hPa | 0 mm | - | 36 W/m² | - |
| 1777494736 | 15° C | 93% | 1008.7 hPa | 0 mm | - | 39 W/m² | - |
| 1777494434 | 15° C | 93% | 1008.7 hPa | 0 mm | - | 27 W/m² | - |
| 1777494129 | 15° C | 93% | 1008.9 hPa | 0 mm | - | 29 W/m² | - |
| 1777493827 | 15° C | 93% | 1008.7 hPa | 0 mm | - | 42 W/m² | - |
* Rain latest hour (hover to see other rain measurements)
** Current wind speed in m/s (hover to see current wind gust speed)